Regional Weather Roundup
Issued by NWS

Home | Current Version | Previous Version | Graphics & Text | Print | Product List | Glossary Off
Versions: 1 2 3 4 5 6 7 8 9 10 11 12 13 14 15 16 17 18 19 20 21 22 23 24 25 26 27 28 29 30 31 32 33 34 35 36 37 38 39 40 41 42 43 44 45 46 47 48 49 50

000
ASUS43 KFSD 282310
RWRSD

WEATHER ROUNDUP FOR SOUTH DAKOTA
NATIONAL WEATHER SERVICE SIOUX FALLS SD
600 PM CDT SUN MAY 28 2017

NOTE: "FAIR" INDICATES FEW OR NO CLOUDS BELOW 12,000 FEET WITH NO
SIGNIFICANT WEATHER AND/OR OBSTRUCTIONS TO VISIBILITY.


SDZ001>005-009-010-012>017-290000-
NORTHWEST AND NORTH CENTRAL SOUTH DAKOTA

CITY           SKY/WX    TMP DP  RH WIND       PRES   REMARKS
BUFFALO          N/A     73  32  22 NW30G41   29.91F
FAITH            N/A     72  44  36 W23       29.94F
MOBRIDGE       MOSUNNY   76  37  24 N21G31    29.83R
$$

SDZ012>016-024>037-041>051-057-063-072>074-290000-
SOUTHWEST AND SOUTH CENTRAL SOUTH DAKOTA

CITY           SKY/WX    TMP DP  RH WIND       PRES   REMARKS
RAPID CTY ARPT LGT RAIN  54  48  80 NW13      30.08R
PIERRE         CLOUDY    74  37  26 W18       29.89F
CUSTER         LGT RAIN  54  39  57 NW8G22    30.15R
ELLSWORTH AFB  PTSUNNY   57  52  81 W12       30.06
PHILIP         PTSUNNY   64  52  64 W9        29.98S
PINE RIDGE     MOSUNNY   64  48  56 W9        30.07S
SPEARFISH      FAIR      64  46  52 W13G18    30.09F
WINNER         FAIR      75  37  25 NW14G22   29.93F
$$

SDZ004>011-016>023-039-040-290000-
NORTHEAST SOUTH DAKOTA

CITY           SKY/WX    TMP DP  RH WIND       PRES   REMARKS
ABERDEEN       CLOUDY    66  45  46 NW9       29.83F
WATERTOWN      LGT RAIN  57  45  64 NW13G44   29.83S
BROOKINGS      SUNNY     69  43  38 N15       29.82F
SISSETON         N/A     64  48  56 N17G29    29.80F
$$

SDZ017-020-022-023-036>040-048>070-290000-
SOUTHEAST SOUTH DAKOTA

CITY           SKY/WX    TMP DP  RH WIND       PRES   REMARKS
SIOUX FALLS    MOSUNNY   72  41  32 NW17      29.84F
HURON          PTSUNNY   75  39  27 NW15G24   29.82F
CHAMBERLAIN    CLOUDY    71  43  36 NW23G37   29.92R
MITCHELL       SUNNY     79  36  21 NW16      29.85F
YANKTON        SUNNY     76  41  28 NW16      29.88F
$$

ABBREVIATIONS USED IN REMARKS
   TC - TEMPERATURE IN CELSIUS
  WCI - WIND CHILL INDEX
   HX - HEAT INDEX
  VSB - VISIBILITY





USA.gov is the U.S. government's official web portal to all federal, state and local government web resources and services.